Date String (YYYY-MM-DD hh:mm:ss) UTC,Instrument flags,Ambient pressure (hPa),Sample flow (lpm),Bypass flow (lpm),Sample temperature (°C),Ambient temperature (°C),ASC tube jacket temperature (°C),LED temperature (°C),Box temperature (°C),Sample RH (%),Span deviation,Mass concentration (μg/m³),Mass concentration (μg/m³),Mass concentration (μg/m³)
DateTimeUTC,F1_M11,P_M11,Q1_M11,Q2_M11,T1_M11,T2_M11,T3_M11,T4_M11,T5_M11,U1_M11,ZSPAN_M11,X0_M11,X2_M11,X1_M11
2023-02-07 13:00:00,,0827.7,5.00,0.00,22.2,20.9,00.0,31.1,23.9,06.6,0000.0,0001.85,0001.25,0000.97
2023-02-07 13:01:00,,0827.8,5.01,0.00,22.3,22.0,00.0,31.1,24.2,06.6,0000.0,0001.84,0001.24,0000.97
2023-02-07 13:02:00,,0827.7,5.01,0.00,22.4,22.8,00.0,31.1,24.4,06.5,0000.0,0001.84,0001.24,0000.96
2023-02-07 13:03:00,,0827.8,4.99,0.00,22.4,22.5,00.0,31.2,24.4,06.4,0000.0,0001.81,0001.22,0000.95
2023-02-07 13:04:00,,0827.8,5.02,0.00,22.4,22.1,00.0,31.2,24.3,06.4,0000.0,0001.83,0001.24,0000.96
2023-02-07 13:05:00,,0827.9,5.01,0.00,22.4,21.7,00.0,31.2,24.2,06.4,0000.0,0001.82,0001.23,0000.96
2023-02-07 13:06:00,,0827.9,5.01,0.00,22.4,21.4,00.0,31.2,24.2,06.5,0000.0,0001.76,0001.20,0000.96
2023-02-07 13:07:00,,0827.9,5.00,0.00,22.4,21.2,00.0,31.2,24.1,06.5,0000.0,0001.72,0001.19,0000.96
2023-02-07 13:08:00,,0827.9,5.01,0.00,22.4,21.0,00.0,31.2,24.1,06.5,0000.0,0001.65,0001.17,0000.96
2023-02-07 13:09:00,,0828.0,5.01,0.00,22.3,20.9,00.0,31.2,24.0,06.5,0000.0,0001.58,0001.14,0000.96
2023-02-07 13:10:00,,0827.9,4.97,0.00,22.3,20.8,00.0,31.2,24.0,06.5,0000.0,0001.55,0001.14,0000.96
2023-02-07 13:11:00,,0827.9,5.00,0.00,22.3,20.8,00.0,31.2,23.9,06.5,0000.0,0001.53,0001.13,0000.96
2023-02-07 13:12:00,,0828.0,4.98,0.00,22.3,20.7,00.0,31.2,23.9,06.5,0000.0,0001.59,0001.14,0000.97
2023-02-07 13:13:00,,0827.9,5.02,0.00,22.2,20.6,00.0,31.2,23.8,06.4,0000.0,0001.69,0001.16,0000.97
2023-02-07 13:14:00,,0828.0,5.00,0.00,22.2,20.5,00.0,31.2,23.8,06.5,0000.0,0001.75,0001.19,0000.98
2023-02-07 13:15:00,,0827.9,4.96,0.00,22.2,20.6,00.0,31.2,23.8,06.5,0000.0,0001.85,0001.24,0000.99
2023-02-07 13:16:00,,0827.9,5.01,0.00,22.2,21.5,00.0,31.1,24.1,06.5,0000.0,0001.82,0001.24,0001.01
2023-02-07 13:17:00,,0828.0,5.00,0.00,22.3,22.5,00.0,31.1,24.3,06.5,0000.0,0001.84,0001.26,0001.03
2023-02-07 13:18:00,,0828.0,4.99,0.00,22.5,22.9,00.0,31.1,24.5,06.4,0000.0,0001.91,0001.28,0001.03
2023-02-07 13:19:00,,0828.0,4.98,0.00,22.5,22.3,00.0,31.2,24.4,06.4,0000.0,0002.07,0001.29,0001.03
2023-02-07 13:20:00,,0828.0,5.01,0.00,22.5,21.9,00.0,31.2,24.3,06.4,0000.0,0002.20,0001.30,0001.04
2023-02-07 13:21:00,,0828.0,5.01,0.00,22.4,21.5,00.0,31.2,24.2,06.5,0000.0,0002.17,0001.30,0001.05
2023-02-07 13:22:00,,0828.0,4.99,0.00,22.4,21.3,00.0,31.2,24.1,06.4,0000.0,0002.27,0001.35,0001.07
2023-02-07 13:23:00,,0828.0,5.01,0.00,22.4,21.2,00.0,31.2,24.1,06.4,0000.0,0002.40,0001.40,0001.09
2023-02-07 13:24:00,,0828.1,5.00,0.00,22.4,21.0,00.0,31.2,24.1,06.5,0000.0,0002.31,0001.41,0001.11
2023-02-07 13:25:00,,0828.1,5.00,0.00,22.3,20.9,00.0,31.2,24.1,06.5,0000.0,0002.34,0001.43,0001.13
2023-02-07 13:26:00,,0828.1,5.00,0.00,22.3,20.8,00.0,31.2,24.1,06.5,0000.0,0002.26,0001.40,0001.14
2023-02-07 13:27:00,,0828.1,5.00,0.00,22.3,20.8,00.0,31.2,24.0,06.8,0000.0,0002.25,0001.41,0001.14
2023-02-07 13:28:00,,0828.1,5.01,0.00,22.3,20.7,00.0,31.2,24.0,06.8,0000.0,0002.30,0001.42,0001.14
2023-02-07 13:29:00,,0828.2,5.00,0.00,22.3,20.7,00.0,31.2,24.0,06.5,0000.0,0002.26,0001.41,0001.14
2023-02-07 13:30:00,,0828.3,5.00,0.00,22.2,20.6,00.0,31.2,24.0,06.5,0000.0,0002.21,0001.40,0001.15
2023-02-07 13:31:00,,0828.2,5.01,0.00,22.2,20.6,00.0,31.2,23.9,06.7,0000.0,0002.07,0001.41,0001.14
2023-02-07 13:32:00,,0828.2,5.00,0.00,22.2,20.6,00.0,31.2,23.9,06.7,0000.0,0002.11,0001.43,0001.15
2023-02-07 13:33:00,,0828.2,5.00,0.00,22.2,21.4,00.0,31.1,24.1,06.6,0000.0,0002.05,0001.40,0001.14
2023-02-07 13:34:00,,0828.2,5.01,0.00,22.3,22.3,00.0,31.1,24.3,06.6,0000.0,0001.88,0001.33,0001.12
2023-02-07 13:35:00,,0828.2,5.01,0.00,22.4,22.2,00.0,31.1,24.4,06.5,0000.0,0001.81,0001.30,0001.11
2023-02-07 13:36:00,,0828.2,5.00,0.00,22.4,21.9,00.0,31.2,24.3,06.6,0000.0,0001.80,0001.29,0001.10
2023-02-07 13:37:00,,0828.3,4.99,0.00,22.4,21.5,00.0,31.2,24.2,06.6,0000.0,0001.85,0001.29,0001.09
2023-02-07 13:38:00,,0828.2,5.00,0.00,22.4,21.2,00.0,31.2,24.1,06.6,0000.0,0001.93,0001.31,0001.09
2023-02-07 13:39:00,,0828.2,5.00,0.00,22.3,21.1,00.0,31.2,24.1,06.6,0000.0,0001.94,0001.32,0001.09
2023-02-07 13:40:00,,0828.2,5.01,0.00,22.3,20.9,00.0,31.2,24.0,06.5,0000.0,0001.90,0001.31,0001.09
2023-02-07 13:41:00,,0828.2,5.01,0.00,22.3,20.8,00.0,31.2,24.0,06.6,0000.0,0001.89,0001.32,0001.10
2023-02-07 13:42:00,,0828.3,5.01,0.00,22.3,20.7,00.0,31.2,24.0,06.6,0000.0,0001.92,0001.34,0001.11
2023-02-07 13:43:00,,0828.2,5.00,0.00,22.2,20.6,00.0,31.2,23.9,06.6,0000.0,0001.90,0001.34,0001.11
2023-02-07 13:44:00,,0828.3,5.01,0.00,22.2,20.5,00.0,31.2,23.9,06.7,0000.0,0001.95,0001.35,0001.11
2023-02-07 13:45:00,,0828.2,4.99,0.00,22.2,20.3,00.0,31.2,23.8,07.0,0000.0,0002.07,0001.38,0001.11
2023-02-07 13:46:00,,0828.2,5.00,0.00,22.1,20.2,00.0,31.1,23.7,07.0,0000.0,0002.15,0001.42,0001.12
2023-02-07 13:47:00,,0828.3,5.00,0.00,22.1,20.7,00.0,31.1,23.8,07.1,0000.0,0002.12,0001.40,0001.11
2023-02-07 13:48:00,,0828.3,4.99,0.00,22.2,21.9,00.0,31.0,24.1,07.0,0000.0,0002.07,0001.38,0001.10
2023-02-07 13:49:00,,0828.3,4.97,0.00,22.3,22.7,00.0,31.1,24.3,07.0,0000.0,0001.98,0001.34,0001.08
2023-02-07 13:50:00,,0828.3,5.01,0.00,22.4,22.4,00.0,31.1,24.3,07.0,0000.0,0001.98,0001.33,0001.07
2023-02-07 13:51:00,,0828.3,4.99,0.00,22.4,21.9,00.0,31.1,24.2,07.0,0000.0,0002.00,0001.34,0001.07
2023-02-07 13:52:00,,0828.3,5.00,0.00,22.4,21.6,00.0,31.2,24.2,07.0,0000.0,0001.99,0001.34,0001.07
2023-02-07 13:53:00,,0828.3,5.00,0.00,22.4,21.3,00.0,31.2,24.1,07.0,0000.0,0001.97,0001.34,0001.07
2023-02-07 13:54:00,,0828.4,5.00,0.00,22.3,21.2,00.0,31.2,24.1,07.0,0000.0,0002.02,0001.34,0001.07
2023-02-07 13:55:00,,0828.3,5.00,0.00,22.3,21.0,00.0,31.2,24.1,07.0,0000.0,0002.05,0001.36,0001.07
2023-02-07 13:56:00,,0828.4,5.00,0.00,22.3,20.9,00.0,31.2,24.0,06.9,0000.0,0002.04,0001.38,0001.07
2023-02-07 13:57:00,,0828.3,4.99,0.00,22.3,20.9,00.0,31.2,24.0,06.9,0000.0,0002.00,0001.36,0001.07
2023-02-07 13:58:00,,0828.3,4.99,0.00,22.3,20.8,00.0,31.2,24.0,06.7,0000.0,0001.98,0001.36,0001.07
2023-02-07 13:59:00,,0828.4,5.01,0.00,22.3,20.8,00.0,31.2,24.0,06.6,0000.0,0002.02,0001.39,0001.09
